Location: NJAA Observatory
(40.6819°N, 74.8979°W)
Time: 07:50:39
(UTC-05:00)

Cosmos 2237 Rocket - Visible Passes

Search period start: 16 January 2017 00:00
Search period end: 26 January 2017 00:00
Orbit: 835 x 850 km, 71.0° (Epoch: 15 January)

Date Brightness Start Highest point End Pass type
(mag) Time Alt. Az. Time Alt. Az. Time Alt. Az.
16 Jan 3.5 04:07:43 37° E 04:07:43 37° E 04:11:52 10° SE visible
16 Jan 3.0 05:49:37 27° W 05:50:20 28° WSW 05:55:03 10° SSW visible
16 Jan 2.1 18:51:47 10° SSW 18:57:24 88° ESE 19:00:18 30° NNE visible
16 Jan 4.7 20:39:00 10° W 20:42:11 15° NW 20:42:11 15° NW visible
17 Jan 4.0 03:54:16 26° ESE 03:54:16 26° ESE 03:56:58 10° SE visible
17 Jan 3.1 05:36:10 28° WSW 05:36:10 28° WSW 05:40:20 10° SSW visible
17 Jan 2.1 18:36:57 10° SSW 18:42:35 84° ESE 18:46:42 19° NNE visible
17 Jan 4.6 20:23:59 10° W 20:27:23 16° NW 20:28:35 15° NNW visible
18 Jan 4.6 03:40:53 16° ESE 03:40:53 16° ESE 03:42:04 10° SE visible
18 Jan 3.5 05:22:48 24° SW 05:22:48 24° SW 05:25:36 10° SSW visible
18 Jan 2.1 18:22:07 10° SSW 18:27:44 80° ESE 18:33:00 12° NNE visible
18 Jan 4.6 20:08:57 10° W 20:12:30 17° NW 20:14:53 13° NNW visible
19 Jan 4.0 05:09:27 17° SSW 05:09:27 17° SSW 05:10:52 10° SSW visible
19 Jan 2.1 18:07:19 10° SSW 18:12:54 77° ESE 18:18:34 10° NNE visible
19 Jan 4.6 19:53:57 10° W 19:57:37 17° NW 20:01:05 11° N visible
20 Jan 2.2 17:52:30 10° SSW 17:58:05 73° ESE 18:03:43 10° NNE visible
20 Jan 4.5 19:38:57 10° W 19:42:45 18° NW 19:46:35 10° N visible
21 Jan 2.2 17:37:41 10° SSW 17:43:15 69° ESE 17:48:52 10° NNE visible
21 Jan 4.5 19:23:57 10° W 19:27:52 19° NW 19:31:49 10° N visible
22 Jan 4.5 19:08:58 10° W 19:13:00 20° NW 19:17:04 10° N visible
23 Jan 4.4 18:53:59 10° W 18:58:07 21° NW 19:02:18 10° N visible
24 Jan 4.4 18:39:00 10° WSW 18:43:15 22° NW 18:47:32 10° N visible
25 Jan 4.3 18:24:02 10° WSW 18:28:23 22° NW 18:32:46 10° N visible
